This demonstration page uses our WeatherBlox Daily Observations layout. Learn more.

Left ArrowRight Arrow

30.21309, -93.2044

Hourly Observations for July 5, 2022

Temp ( °F °C ) Dew Point ( °F °C ) Humidity (%) Winds ( mph kmh ) Pressure ( in mb ) Visibility ( mi km ) Precip ( " mm )
12:15 am 00:15 Clear 79 25.9 75 24.1 90 90 S 3 6 30.06 1018 7 11 0.00 0.00
12:35 am 00:35 Clear 81 27.3 76 24.4 84 84 SSW 5 7 30.05 1018 10 16 0.00 0.00
12:55 am 00:55 Clear 78 25.6 75 23.9 90 90 S 3 6 30.05 1018 10 16 0.00 0.00
1:15 am 01:15 Clear 77 25.1 75 23.8 93 93 SSW 5 7 30.05 1018 7 11 0.00 0.00
1:35 am 01:35 Clear 81 27.1 76 24.3 85 85 SSW 6 9 30.04 1017 10 16 0.00 0.00
1:55 am 01:55 Clear 81 27.3 76 24.2 83 83 SSW 7 11 30.04 1017 10 16 0.00 0.00
2:15 am 02:15 Partly Cloudy 81 27 75 24.1 84 84 S 3 6 30.04 1017 10 16 0.00 0.00
2:35 am 02:35 Mostly Cloudy 78 25.5 75 23.9 91 91 Calm 30.05 1018 10 16 0.00 0.00
2:55 am 02:55 Partly Cloudy 78 25.5 75 24 91 91 Calm 30.04 1017 10 16 0.00 0.00
3:15 am 03:15 Partly Cloudy 78 25.4 75 24.1 93 93 Calm 30.04 1017 10 16 0.00 0.00
3:35 am 03:35 Clear 77 24.9 75 23.8 94 94 Calm 30.04 1017 7 11 0.00 0.00
3:55 am 03:55 Clear with Mist and Fog 77 24.8 75 23.7 94 94 ESE 5 7 30.04 1017 5 8 0.00 0.00
4:15 am 04:15 Partly Cloudy with Mist and Fog 76 24.6 74 23.6 94 94 Calm 30.03 1017 5 8 0.00 0.00
4:35 am 04:35 Partly Cloudy with Mist and Fog 77 24.9 75 23.9 94 94 E 3 6 30.04 1017 5 8 0.00 0.00
4:55 am 04:55 Clear with Mist and Fog 76 24.5 74 23.6 95 95 ESE 3 6 30.04 1017 4 6 0.00 0.00
5:15 am 05:15 Clear with Mist and Fog 77 24.8 75 24 95 95 Calm 30.04 1017 4 6 0.00 0.00
5:35 am 05:35 Clear with Mist and Fog 76 24.6 75 23.8 95 95 E 3 6 30.04 1017 4 6 0.00 0.00
6:00 am 06:00 Mostly Clear 75 24 75 24 100 100 Calm 30.05 1018 10 16 0.00 0.00
6:53 am 06:53 Mostly Sunny 75 24 75 24 100 100 Calm 30.06 1018 10 16 0.00 0.00
7:53 am 07:53 Mostly Sunny 81 27 77 25 89 89 SW 5 7 30.06 1018 10 16 0.00 0.00
8:55 am 08:55 Partly Cloudy 86 30 75 24 70 70 S 8 13 30.06 1018 10 16 0.00 0.00
9:55 am 09:55 Partly Cloudy 86 30 75 24 70 70 S 8 13 30.06 1018 10 16 0.00 0.00
10:55 am 10:55 Partly Cloudy 90 32 73 23 59 59 SSW 12 19 30.06 1018 10 16 0.00 0.00
11:55 am 11:55 Mostly Cloudy 90 32 73 23 59 59 SSW 12 19 30.05 1018 10 16 0.00 0.00
12:50 pm 12:50 Mostly Cloudy 90 32 73 23 59 59 SSW 12 19 30.04 1017 10 16 0.00 0.00
1:50 pm 13:50 Mostly Cloudy 93 34 72 22 49 49 SW 8 13 30.02 1017 10 16 0.00 0.00
2:56 pm 14:56 Partly Cloudy 93 34 73 23 53 53 SW 9 15 30.00 1016 10 16 0.00 0.00
3:56 pm 15:56 Mostly Cloudy 91 33 73 23 56 56 SW 12 19 29.99 1016 10 16 0.00 0.00
4:55 pm 16:55 Partly Cloudy 91 33 75 24 59 59 SSW 13 20 29.99 1016 10 16 0.00 0.00
5:54 pm 17:54 Mostly Sunny 90 32 73 23 59 59 S 14 22 29.98 1015 10 16 0.00 0.00
6:50 pm 18:50 Mostly Sunny 88 31 73 23 62 62 S 12 19 29.97 1015 10 16 0.00 0.00
7:56 pm 19:56 Mostly Sunny 86 30 75 24 70 70 S 9 15 29.97 1015 10 16 0.00 0.00
8:51 pm 20:51 Mostly Clear 84 29 75 24 74 74 S 6 9 29.97 1015 10 16 0.00 0.00
9:54 pm 21:54 Mostly Clear 82 28 75 24 79 79 S 7 11 29.96 1015 10 16 0.00 0.00
10:15 pm 22:15 Clear 82 27.9 76 24.3 81 81 S 5 7 29.97 1015 10 16 0.00 0.00
10:35 pm 22:35 Clear 79 26.1 75 24.1 89 89 SSE 5 7 29.98 1015 10 16 0.00 0.00
10:55 pm 22:55 Clear 78 25.6 75 23.8 90 90 S 6 9 29.98 1015 10 16 0.00 0.00
11:15 pm 23:15 Clear 82 27.5 76 24.2 82 82 S 7 11 29.98 1015 10 16 0.00 0.00
11:35 pm 23:35 Clear 78 25.7 75 23.9 90 90 SSE 5 7 29.98 1015 10 16 0.00 0.00
11:55 pm 23:55 Clear 78 25.4 75 23.8 91 91 SSE 5 7 29.99 1016 10 16 0.00 0.00

Powered by AerisWeather